Location: The Saddle
(36.8333°N, 80.3417°W)
Time: 06:08:38
(UTC-04:00)

Courier 1B - Pass Details

Date: 19 September 2024
Orbit: 962 x 1208 km, 28.3° (Epoch: 05 October)

Event Time Altitude Azimuth Distance (km) Brightness Sun altitude
Rises 12:44:37 0° 223° (SW) 3,688 10.8 53.6°
Reaches altitude 10° 12:47:44 10° 210° (SSW) 2,772 10.5 53.7°
Maximum altitude 12:53:00 24° 158° (SSE) 1,986 10.3 53.9°
Drops below altitude 10° 12:58:29 10° 107° (ESE) 2,913 10.3 54.1°
Sets 13:01:51 0° 95° (E) 3,917 10.7 54.1°
